This demonstration page uses our WeatherBlox Daily Observations layout. Learn more.

Left ArrowRight Arrow

40.92945, -100.16068

Hourly Observations for February 28, 2016

Temp ( °F °C ) Dew Point ( °F °C ) Humidity (%) Winds ( mph kmh ) Pressure ( in mb ) Visibility ( mi km ) Precip ( " mm )
12:15 am 00:15 Clear 50 9.8 27 -2.7 42 42 WNW 17 28 29.62 1003 10 16.0934 N/A
12:35 am 00:35 Clear 57 13.7 28 -2.4 33 33 WNW 23 37 29.59 1002 10 16.0934 N/A
12:55 am 00:55 Clear 56 13.2 28 -2.5 34 34 NW 17 28 29.65 1004 10 16.0934 N/A
1:15 am 01:15 Clear 53 11.6 28 -2.3 38 38 WNW 14 22 29.65 1004 10 16.0934 N/A
1:35 am 01:35 Clear 51 10.7 28 -2.1 41 41 WNW 15 24 29.65 1004 10 16.0934 N/A
1:55 am 01:55 Clear 49 9.7 29 -1.6 46 46 WNW 14 22 29.65 1004 10 16.0934 N/A
2:15 am 02:15 Clear 52 11 29 -1.8 41 41 WNW 20 31 29.68 1005 10 16.0934 N/A
2:35 am 02:35 Clear 51 10.5 29 -1.6 43 43 WNW 21 33 29.68 1005 10 16.0934 N/A
2:55 am 02:55 Clear 52 11 31 -0.6 45 45 WNW 23 37 29.68 1005 10 16.0934 N/A
3:15 am 03:15 Clear 51 10.7 33 0.4 49 49 WNW 21 33 29.68 1005 10 16.0934 N/A
3:35 am 03:35 Clear 51 10.7 34 1.2 52 52 NW 23 37 29.68 1005 10 16.0934 N/A
3:55 am 03:55 Clear 51 10.5 35 1.5 54 54 NW 23 37 29.68 1005 10 16.0934 N/A
4:15 am 04:15 Clear 51 10.3 35 1.7 56 56 WNW 25 41 29.71 1006 10 16.0934 N/A
4:35 am 04:35 Clear 50 10.1 36 2 57 57 NW 22 35 29.71 1006 10 16.0934 N/A
4:55 am 04:55 Clear 49 9.6 36 2.3 61 61 NW 22 35 29.71 1006 10 16.0934 N/A
5:15 am 05:15 Clear 48 9 36 2.4 64 64 NW 17 28 29.74 1007 10 16.0934 N/A
5:35 am 05:35 Clear 47 8.4 36 2.4 66 66 WNW 20 31 29.74 1007 10 16.0934 N/A
5:55 am 05:55 Clear 46 7.7 36 2.4 69 69 WNW 16 26 29.74 1007 10 16.0934 N/A
6:15 am 06:15 Clear 45 7.1 36 2 70 70 WNW 16 26 29.8 1009 10 16.0934 N/A
6:35 am 06:35 Clear 45 7.1 36 2.2 71 71 NW 18 30 29.8 1009 10 16.0934 N/A
6:55 am 06:55 Clear 44 6.9 37 2.5 74 74 NW 21 33 29.8 1009 10 16.0934 N/A
7:15 am 07:15 Sunny 46 7.7 36 2.4 69 69 NW 23 37 29.8 1009 10 16.0934 N/A
7:35 am 07:35 Sunny 47 8.4 35 1.8 63 63 NNW 26 43 29.8 1009 10 16.0934 N/A
7:55 am 07:55 Sunny 47 8.2 34 1.3 62 62 NNW 30 48 29.85 1011 10 16.0934 N/A
8:15 am 08:15 Sunny 47 8.6 35 1.6 62 62 NNW 26 43 29.83 1010 10 16.0934 N/A
8:35 am 08:35 Sunny 48 9.1 35 1.9 61 61 NNW 28 44 29.85 1011 10 16.0934 N/A
8:55 am 08:55 Sunny 49 9.7 35 1.5 57 57 NNW 25 41 29.85 1011 10 16.0934 N/A
9:15 am 09:15 Sunny 50 10.1 34 1.3 55 55 NNW 28 44 29.88 1012 10 16.0934 N/A
9:35 am 09:35 Sunny 51 10.5 35 1.5 54 54 NNW 30 48 29.91 1013 10 16.0934 N/A
9:55 am 09:55 Sunny 51 10.6 35 1.4 53 53 NNW 32 52 29.91 1013 10 16.0934 N/A
10:15 am 10:15 Sunny 51 10.5 35 1.5 54 54 N 30 48 29.91 1013 10 16.0934 N/A
10:35 am 10:35 Sunny 52 11.2 34 1.2 50 50 NNW 24 39 29.94 1014 10 16.0934 N/A
10:55 am 10:55 Sunny 53 11.7 34 1 48 48 NNW 28 44 29.94 1014 10 16.0934 N/A
11:15 am 11:15 Mostly Cloudy 52 11 34 1.1 51 51 NNW 23 37 29.97 1015 10 16.0934 N/A
11:35 am 11:35 Mostly Cloudy 51 10.8 32 0.1 48 48 NNW 32 52 29.97 1015 10 16.0934 N/A
11:55 am 11:55 Partly Cloudy 53 11.4 33 0.3 47 47 NNW 32 52 30 1016 10 16.0934 N/A
12:15 pm 12:15 Partly Cloudy 53 11.5 33 0.3 46 46 NNW 24 39 30 1016 10 16.0934 N/A
12:35 pm 12:35 Partly Cloudy 53 11.9 32 0.2 45 45 NNW 29 46 29.97 1015 10 16.0934 N/A
12:55 pm 12:55 Partly Cloudy 55 12.6 32 -0.1 42 42 NNW 28 44 29.94 1014 10 16.0934 N/A
1:15 pm 13:15 Sunny 55 12.8 30 -1.3 38 38 NNW 24 39 29.94 1014 10 16.0934 N/A
1:35 pm 13:35 Partly Cloudy 56 13.5 29 -1.9 35 35 NNW 21 33 29.94 1014 10 16.0934 N/A
1:55 pm 13:55 Sunny 56 13.6 26 -3.4 31 31 N 22 35 29.94 1014 10 16.0934 N/A
2:15 pm 14:15 Sunny 57 13.7 24 -4.6 28 28 N 26 43 29.94 1014 10 16.0934 N/A
2:35 pm 14:35 Sunny 57 13.7 23 -5.2 27 27 NNW 26 43 29.94 1014 10 16.0934 N/A
2:55 pm 14:55 Sunny 58 14.4 23 -4.9 26 26 NNW 26 43 29.94 1014 10 16.0934 N/A
3:15 pm 15:15 Sunny 58 14.2 23 -5 26 26 N 21 33 29.94 1014 10 16.0934 N/A
3:35 pm 15:35 Sunny 58 14.5 22 -5.4 25 25 NNW 26 43 29.94 1014 10 16.0934 N/A
3:55 pm 15:55 Sunny 58 14.7 22 -5.3 25 25 NNW 18 30 29.94 1014 10 16.0934 N/A
4:15 pm 16:15 Sunny 58 14.7 22 -5.4 25 25 NNW 21 33 29.94 1014 10 16.0934 N/A
4:35 pm 16:35 Sunny 58 14.4 22 -5.8 24 24 NNW 18 30 29.94 1014 10 16.0934 N/A
4:55 pm 16:55 Sunny 58 14.2 20 -6.7 23 23 NNW 22 35 29.94 1014 10 16.0934 N/A
5:15 pm 17:15 Sunny 57 14 20 -6.8 23 23 N 16 26 29.94 1014 10 16.0934 N/A
5:35 pm 17:35 Sunny 56 13.4 20 -6.5 25 25 N 7 11 30 1016 10 16.0934 N/A
5:55 pm 17:55 Sunny 55 12.5 20 -6.6 26 26 N 10 17 30 1016 10 16.0934 N/A
6:15 pm 18:15 Sunny 51 10.4 20 -6.7 30 30 N 6 9 30 1016 10 16.0934 N/A
6:35 pm 18:35 Clear 48 8.8 19 -7.2 32 32 N 6 9 30.03 1017 10 16.0934 N/A
6:55 pm 18:55 Clear 45 7.2 19 -7.1 36 36 NE 5 7 30.03 1017 10 16.0934 N/A
7:15 pm 19:15 Clear 44 6.6 19 -7.2 37 37 N N/A 30.03 1017 10 16.0934 N/A
7:35 pm 19:35 Clear 40 4.6 22 -5.8 47 47 S 5 7 30.06 1018 10 16.0934 N/A
7:55 pm 19:55 Clear 39 3.7 21 -5.9 50 50 S 3 6 30.06 1018 7 11.26538 N/A
8:15 pm 20:15 Clear 39 3.9 20 -6.6 47 47 S 3 6 30.06 1018 10 16.0934 N/A
8:35 pm 20:35 Clear 39 3.9 20 -6.5 47 47 S 5 7 30.06 1018 10 16.0934 N/A
8:55 pm 20:55 Clear 37 2.9 22 -5.6 54 54 SE 6 9 30.09 1019 10 16.0934 N/A
9:15 pm 21:15 Clear 39 4 21 -5.9 49 49 SSE 6 9 30.06 1018 10 16.0934 N/A
9:35 pm 21:35 Clear 34 1.2 22 -5.5 61 61 S 5 7 30.06 1018 10 16.0934 N/A
9:55 pm 21:55 Clear 34 1.3 22 -5.6 60 60 S 7 11 30.06 1018 10 16.0934 N/A
10:15 pm 22:15 Clear 33 0.8 21 -6 61 61 S 7 11 30.06 1018 10 16.0934 N/A
10:35 pm 22:35 Clear 31 -0.3 22 -5.5 68 68 S 10 17 30.09 1019 10 16.0934 N/A
10:55 pm 22:55 Clear 35 1.5 23 -5 62 62 SSW 10 17 30.06 1018 10 16.0934 N/A
11:15 pm 23:15 Clear 39 3.8 23 -5.1 53 53 S 9 15 30.03 1017 10 16.0934 N/A
11:35 pm 23:35 Clear 38 3.4 23 -5 55 55 S 9 15 30.03 1017 10 16.0934 N/A
11:55 pm 23:55 Clear 37 2.8 23 -4.8 58 58 S 10 17 30.03 1017 10 16.0934 N/A

Powered by AerisWeather